QPF
0.00 0.00 0.00 0.01 0.00 0.00 0.00 0.01 0.00 0.01 0.01 0.00 0.00 0.00 0.00 0.00 0.00 0.00 0.00 0.00 0.00 0.00 0.01 0.04 0.01 0.00 0.00 0.00 0.00 0.00 0.00 0.00 0.00 0.00 0.00 0.00 0.00 0.00 0.00 0.00 0.00 0.00 0.00
0.00 0.00 0.00 0.01 0.00 0.00 0.01 0.01 0.00 0.00 0.00 0.00 0.00 0.00 0.00 0.00 0.00 0.00 0.00 0.00 0.00 0.00 0.03 0.05 0.03 0.00 0.00 0.00 0.00 0.00 0.00 0.00 0.00 0.00 0.00 0.00 0.00 0.00 0.00 0.00 0.00 0.00 0.00
0.00 0.00 0.00 0.00 0.00 0.00 0.01 0.01 0.00 0.00 0.00 0.00 0.00 0.00 0.00 0.00 0.00 0.00 0.00 0.00 0.00 0.00 0.05 0.05 0.00 0.00 0.00 0.00 0.00 0.00 0.00 0.00 0.00 0.00 0.00 0.00 0.00 0.00 0.00 0.00 0.00 0.00 0.00
0.00 0.00 0.00 0.00 0.00 0.00 0.01 0.01 0.00 0.00 0.00 0.00 0.00 0.00 0.00 0.00 0.00 0.00 0.00 0.02 0.02 0.04 0.05 0.01 0.00 0.00 0.00 0.00 0.00 0.00 0.00 0.00 0.00 0.00 0.00 0.00 0.00 0.00 0.00 0.00 0.00 0.00 0.00
0.00 0.00 0.00 0.00 0.00 0.00 0.01 0.01 0.00 0.00 0.00 0.00 0.00 0.00 0.00 0.00 0.00 0.00 0.00 0.00 0.00 0.00 0.00 0.00 0.00 0.00 0.00 0.00 0.00 0.00 0.00 0.00 0.00 0.00 0.00 0.00 0.00 0.01 0.01 0.01 0.01 0.00 0.01
0.00 0.00 0.00 0.00 0.00 0.00 0.00 0.01 0.00 0.00 0.00 0.00 0.00 0.00 0.00 0.00 0.00 0.00 0.00 0.00 0.00 0.00 0.00 0.00 0.00 0.00 0.00 0.00 0.00 0.00 0.00 0.00 0.00 0.00 0.00 0.00 0.01 0.03 0.02 0.01 0.05 0.06 0.04
0.00 0.00 0.00 0.00 0.00 0.00 0.01 0.01 0.01 0.00 0.00 0.00 0.00 0.00 0.00 0.00 0.00 0.00 0.00 0.00 0.00 0.00 0.00 0.00 0.00 0.00 0.00 0.00 0.00 0.00 0.00 0.00 0.00 0.00 0.00 0.00 0.01 0.01 0.01 0.00 0.00 0.00 0.00
0.00 0.00 0.00 0.00 0.00 0.01 0.00 0.00 0.00 0.01 0.00 0.00 0.00 0.00 0.00 0.00 0.00 0.00 0.00 0.00 0.00 0.00 0.00 0.00 0.00 0.00 0.00 0.00 0.00 0.00 0.00 0.00 0.00 0.00 0.00 0.01 0.00 0.00 0.01 0.00 0.00 0.00 0.00
0.00 0.00 0.00 0.00 0.00 0.00 0.00 0.00 0.00 0.00 0.00 0.00 0.00 0.00 0.00 0.00 0.00 0.00 0.00 0.00 0.00 0.00 0.00 0.00 0.00 0.00 0.00 0.00 0.00 0.00 0.00 0.00 0.00 0.00 0.00 0.00 0.00 0.00 0.00 0.00 0.00 0.00 0.00
0.00 0.00 0.00 0.00 0.00 0.00 0.00 0.00 0.00 0.00 0.00 0.00 0.00 0.00 0.00 0.00 0.00 0.00 0.00 0.00 0.00 0.00 0.00 0.01 0.00 0.00 0.00 0.00 0.00 0.00 0.00 0.00 0.00 0.00 0.00 0.00 0.00 0.00 0.00 0.00 0.00 0.00 0.00
0.00 0.00 0.00 0.00 0.00 0.00 0.00 0.00 0.00 0.00 0.00 0.00 0.00 0.00 0.00 0.00 0.00 0.00 0.00 0.00 0.00 0.01 0.01 0.01 0.00 0.00 0.00 0.00 0.00 0.00 0.00 0.00 0.00 0.00 0.00 0.00 0.00 0.00 0.00 0.00 0.00 0.00 0.00
0.00 0.00 0.00 0.00 0.00 0.00 0.00 0.00 0.00 0.00 0.00 0.00 0.00 0.00 0.00 0.00 0.00 0.00 0.00 0.00 0.00 0.01 0.00 0.01 0.00 0.00 0.00 0.00 0.00 0.00 0.00 0.00 0.00 0.00 0.00 0.00 0.00 0.00 0.00 0.00 0.00 0.00 0.00
0.00 0.00 0.00 0.00 0.00 0.00 0.00 0.00 0.00 0.00 0.00 0.00 0.00 0.00 0.00 0.00 0.00 0.00 0.00 0.00 0.00 0.00 0.00 0.00 0.00 0.00 0.00 0.00 0.00 0.00 0.00 0.00 0.00 0.00 0.00 0.00 0.00 0.00 0.00 0.00 0.00 0.00 0.00
0.00 0.00 0.00 0.00 0.00 0.00 0.00 0.00 0.00 0.00 0.00 0.00 0.00 0.00 0.00 0.00 0.00 0.00 0.00 0.00 0.00 0.00 0.00 0.00 0.00 0.00 0.00 0.00 0.00 0.00 0.00 0.00 0.00 0.00 0.00 0.00 0.00 0.00 0.00 0.00 0.00 0.00 0.00
0.00 0.00 0.00 0.00 0.00 0.00 0.00 0.00 0.00 0.00 0.00 0.00 0.00 0.00 0.00 0.00 0.00 0.00 0.00 0.00 0.00 0.00 0.00 0.00 0.00 0.00 0.00 0.00 0.00 0.00 0.00 0.00 0.00 0.00 0.00 0.00 0.00 0.00 0.00 0.00 0.00 0.00 0.00
0.00 0.00 0.00 0.01 0.01 0.00 0.01 0.01 0.02 0.00 0.00 0.00 0.00 0.00 0.00 0.00 0.00 0.00 0.00 0.00 0.00 0.00 0.00 0.00 0.00 0.00 0.00 0.00 0.00 0.00 0.00 0.00 0.00 0.00 0.00 0.00 0.00 0.00 0.00 0.00 0.00 0.00 0.00
0.00 0.00 0.00 0.00 0.00 0.00 0.01 0.02 0.02 0.03 0.02 0.00 0.00 0.00 0.00 0.00 0.00 0.00 0.00 0.00 0.00 0.00 0.00 0.00 0.00 0.00 0.00 0.00 0.00 0.00 0.00 0.00 0.00 0.00 0.00 0.00 0.00 0.00 0.00 0.00 0.00 0.00 0.00
0.00 0.00 0.00 0.00 0.00 0.00 0.00 0.01 0.02 0.03 0.01 0.03 0.03 0.01 0.00 0.00 0.00 0.00 0.00 0.00 0.00 0.00 0.00 0.00 0.00 0.00 0.00 0.00 0.00 0.00 0.00 0.00 0.00 0.00 0.00 0.00 0.00 0.00 0.00 0.00 0.00 0.00 0.00
0.00 0.00 0.00 0.00 0.00 0.00 0.00 0.00 0.02 0.02 0.01 0.01 0.03 0.02 0.01 0.01 0.01 0.00 0.00 0.00 0.00 0.00 0.00 0.00 0.00 0.00 0.00 0.00 0.00 0.00 0.00 0.00 0.00 0.00 0.00 0.00 0.00 0.00 0.00 0.00 0.00 0.00 0.00
0.00 0.00 0.00 0.00 0.00 0.00 0.00 0.00 0.01 0.01 0.00 0.00 0.00 0.01 0.08 0.04 0.03 0.01 0.00 0.00 0.00 0.00 0.00 0.00 0.00 0.00 0.00 0.00 0.00 0.00 0.00 0.00 0.00 0.00 0.00 0.00 0.00 0.00 0.00 0.00 0.00 0.00 0.00
0.00 0.00 0.00 0.00 0.00 0.00 0.00 0.00 0.00 0.00 0.01 0.01 0.00 0.06 0.03 0.04 0.01 0.02 0.01 0.00 0.00 0.00 0.00 0.00 0.00 0.00 0.00 0.00 0.00 0.00 0.00 0.00 0.00 0.00 0.00 0.00 0.00 0.00 0.00 0.00 0.00 0.00 0.00
0.00 0.00 0.00 0.00 0.00 0.00 0.00 0.00 0.00 0.00 0.00 0.00 0.00 0.00 0.00 0.01 0.01 0.00 0.01 0.02 0.01 0.00 0.00 0.00 0.00 0.00 0.00 0.00 0.00 0.00 0.00 0.00 0.00 0.00 0.00 0.00 0.00 0.00 0.00 0.00 0.00 0.00 0.00
0.00 0.00 0.00 0.00 0.00 0.00 0.00 0.00 0.00 0.00 0.00 0.00 0.00 0.00 0.00 0.00 0.00 0.01 0.05 0.05 0.04 0.01 0.00 0.00 0.00 0.00 0.00 0.00 0.00 0.00 0.00 0.00 0.00 0.00 0.00 0.00 0.00 0.00 0.00 0.00 0.00 0.00 0.00
0.00 0.00 0.00 0.00 0.00 0.00 0.00 0.00 0.00 0.00 0.00 0.00 0.00 0.00 0.00 0.00 0.00 0.03 0.04 0.04 0.04 0.04 0.01 0.00 0.00 0.00 0.00 0.00 0.00 0.00 0.00 0.00 0.00 0.00 0.00 0.00 0.00 0.00 0.00 0.00 0.00 0.00 0.00
0.00 0.00 0.00 0.00 0.00 0.00 0.00 0.00 0.00 0.00 0.00 0.00 0.00 0.00 0.00 0.00 0.00 0.02 0.03 0.04 0.01 0.01 0.06 0.03 0.01 0.02 0.02 0.01 0.00 0.00 0.00 0.00 0.00 0.00 0.00 0.00 0.00 0.00 0.00 0.00 0.00 0.00 0.00
0.00 0.00 0.00 0.00 0.00 0.00 0.00 0.00 0.00 0.00 0.00 0.00 0.00 0.00 0.00 0.00 0.00 0.01 0.02 0.01 0.04 0.03 0.04 0.02 0.07 0.06 0.05 0.03 0.02 0.01 0.01 0.00 0.00 0.00 0.00 0.00 0.00 0.00 0.00 0.00 0.00 0.00 0.00
MSLP
1012.49 1012.89 1013.85 1014.15 1014.55 1014.93 1015.23 1015.52 1015.79 1016.03 1016.28 1016.52 1016.73 1016.89 1017.02 1017.18 1017.28 1017.43 1017.40 1017.41 1017.43 1017.43 1017.46 1017.63 1017.78 1017.92 1018.15 1018.28 1018.43 1018.52 1018.57 1018.59 1018.63 1018.67 1018.64 1018.62 1018.52 1018.57 1018.60 1018.63 1018.33 1017.99 1018.42
1012.31 1012.93 1014.00 1014.24 1014.61 1015.06 1015.34 1015.65 1015.97 1016.28 1016.51 1016.76 1017.09 1017.23 1017.41 1017.43 1017.46 1017.54 1017.53 1017.57 1017.63 1017.59 1017.71 1017.90 1018.04 1018.17 1018.41 1018.57 1018.71 1018.80 1018.89 1018.89 1018.94 1018.99 1018.96 1018.85 1018.80 1018.80 1018.82 1018.78 1018.63 1018.59 1018.69
1012.44 1012.83 1013.95 1014.42 1014.78 1015.13 1015.48 1015.87 1016.22 1016.51 1016.73 1016.88 1017.25 1017.48 1017.59 1017.71 1017.76 1017.74 1017.71 1017.69 1017.73 1017.76 1017.95 1018.13 1018.25 1018.47 1018.68 1018.85 1018.98 1019.01 1019.08 1019.17 1019.30 1019.34 1018.90 1018.37 1018.68 1019.02 1019.00 1018.94 1018.92 1018.88 1018.89
1012.50 1013.09 1013.77 1014.54 1014.93 1015.25 1015.58 1016.00 1016.35 1016.60 1016.82 1017.09 1017.38 1017.72 1017.83 1017.91 1017.94 1017.96 1017.95 1017.77 1017.85 1018.01 1018.27 1018.54 1018.73 1018.88 1018.96 1019.07 1019.17 1019.19 1019.21 1019.31 1019.44 1019.22 1018.51 1018.44 1018.46 1019.14 1019.10 1019.11 1019.07 1019.04 1019.03
1012.86 1013.20 1013.87 1014.79 1015.16 1015.41 1015.68 1016.03 1016.42 1016.74 1017.01 1017.23 1017.41 1017.81 1018.08 1018.13 1018.17 1018.19 1018.34 1018.36 1018.52 1018.60 1018.78 1018.93 1019.07 1019.19 1019.29 1019.36 1019.42 1019.44 1019.52 1019.56 1019.47 1018.91 1018.76 1018.84 1018.88 1019.07 1019.13 1019.12 1019.20 1019.19 1019.07
1013.04 1013.45 1014.73 1015.14 1015.44 1015.63 1015.83 1016.23 1016.56 1016.88 1017.12 1017.35 1017.59 1017.92 1018.25 1018.28 1018.32 1018.39 1018.74 1018.89 1018.97 1019.08 1019.15 1019.27 1019.41 1019.43 1019.51 1019.62 1019.67 1019.64 1019.71 1019.74 1019.57 1018.95 1018.91 1019.13 1019.04 1019.39 1019.28 1019.40 1019.42 1019.35 1019.11
1013.30 1013.61 1014.73 1015.31 1015.58 1015.70 1015.98 1016.29 1016.67 1017.02 1017.27 1017.43 1017.69 1018.12 1018.40 1018.53 1018.54 1018.62 1018.91 1019.11 1019.27 1019.40 1019.47 1019.51 1019.60 1019.64 1019.68 1019.73 1019.80 1019.81 1019.82 1019.75 1019.09 1019.12 1019.05 1018.93 1019.34 1019.61 1019.57 1019.71 1019.70 1019.69 1019.77
1013.61 1014.04 1014.46 1015.33 1015.64 1015.94 1016.22 1016.46 1016.77 1017.14 1017.42 1017.69 1017.94 1018.29 1018.47 1018.63 1018.81 1018.97 1019.14 1019.43 1019.49 1019.56 1019.64 1019.67 1019.72 1019.88 1019.92 1019.93 1020.03 1020.08 1020.08 1019.87 1019.35 1019.26 1019.36 1019.31 1019.91 1019.93 1019.98 1020.05 1020.11 1020.25 1020.25
1013.72 1014.16 1014.47 1015.19 1015.83 1016.20 1016.43 1016.64 1016.99 1017.26 1017.54 1017.86 1018.00 1018.39 1018.59 1018.82 1019.00 1019.20 1019.40 1019.52 1019.59 1019.67 1019.79 1019.85 1019.94 1020.11 1020.15 1020.22 1020.25 1020.31 1020.32 1020.23 1019.41 1019.49 1019.55 1019.54 1020.28 1020.18 1020.36 1020.48 1020.61 1020.82 1020.82
1014.15 1014.20 1014.35 1014.81 1015.37 1015.75 1016.26 1016.90 1017.19 1017.35 1017.60 1017.87 1018.11 1018.45 1018.79 1019.04 1019.22 1019.42 1019.55 1019.64 1019.76 1019.83 1019.93 1020.04 1020.17 1020.31 1020.38 1020.43 1020.52 1020.58 1020.58 1020.40 1019.80 1019.94 1019.69 1020.15 1020.54 1020.55 1020.68 1020.80 1020.95 1021.08 1021.11
1014.41 1014.43 1014.49 1014.75 1015.14 1015.56 1015.88 1016.55 1017.33 1017.52 1017.69 1017.94 1018.21 1018.46 1018.82 1018.60 1019.04 1019.43 1019.40 1019.67 1019.75 1019.83 1019.90 1020.12 1020.37 1020.47 1020.52 1020.69 1020.82 1020.77 1020.61 1019.94 1019.87 1019.87 1019.76 1020.76 1020.79 1020.89 1021.07 1021.19 1021.15 1021.36 1021.38
1014.73 1014.72 1014.66 1014.77 1015.01 1015.52 1016.02 1016.27 1016.60 1016.83 1017.43 1017.46 1017.67 1018.03 1017.94 1018.11 1018.49 1018.87 1019.48 1019.85 1019.88 1019.86 1019.99 1020.23 1020.47 1020.56 1020.39 1020.02 1020.43 1020.71 1020.09 1020.20 1020.09 1020.08 1020.08 1020.94 1020.95 1021.16 1021.28 1021.39 1021.47 1021.56 1021.69
1014.58 1014.93 1015.06 1014.86 1014.93 1015.35 1015.78 1015.99 1016.08 1016.24 1016.64 1016.85 1017.10 1017.36 1017.50 1017.86 1018.47 1018.99 1019.14 1019.54 1019.45 1019.91 1019.58 1020.10 1020.37 1019.97 1019.95 1019.98 1020.07 1020.02 1020.22 1020.22 1020.09 1020.27 1020.73 1021.16 1021.15 1021.38 1021.62 1021.61 1021.76 1021.90 1021.91
1014.37 1014.61 1014.97 1015.19 1014.91 1015.16 1015.35 1015.70 1015.71 1015.93 1016.49 1016.67 1016.89 1016.99 1017.26 1017.59 1017.96 1018.20 1018.38 1018.78 1018.93 1019.06 1019.01 1019.37 1019.44 1019.76 1020.06 1020.08 1020.00 1020.00 1020.21 1020.20 1020.13 1020.34 1020.77 1021.37 1021.29 1021.44 1021.74 1021.92 1021.99 1022.18 1022.23
1014.01 1014.27 1014.63 1015.00 1014.89 1015.01 1015.27 1015.25 1015.40 1015.65 1016.05 1016.24 1016.66 1016.80 1016.99 1017.19 1017.45 1017.68 1017.96 1018.25 1018.56 1018.59 1018.66 1019.00 1019.25 1019.57 1019.75 1019.93 1020.14 1020.13 1020.13 1020.23 1020.30 1020.35 1020.35 1021.40 1021.42 1021.69 1021.89 1022.06 1022.21 1022.34 1022.45
1013.10 1013.59 1014.19 1014.46 1014.59 1014.48 1015.55 1015.21 1015.13 1015.23 1015.36 1015.81 1016.18 1016.44 1016.74 1016.76 1016.95 1017.24 1017.50 1017.80 1018.13 1018.48 1018.54 1018.72 1018.89 1019.21 1019.45 1019.83 1020.07 1020.15 1020.08 1020.26 1020.45 1020.57 1020.62 1021.43 1021.76 1021.81 1021.95 1022.20 1022.37 1022.48 1022.50
1012.34 1012.56 1013.03 1013.76 1014.04 1014.30 1014.89 1015.33 1015.01 1015.04 1015.14 1015.08 1015.52 1015.94 1016.36 1016.65 1016.79 1016.88 1016.94 1017.19 1017.65 1018.02 1018.27 1018.61 1018.82 1018.99 1019.27 1019.68 1019.85 1020.08 1020.22 1020.19 1020.41 1020.58 1020.80 1020.93 1021.92 1022.21 1022.18 1022.33 1022.44 1022.51 1022.51
1012.40 1012.50 1012.64 1012.88 1013.30 1013.65 1014.23 1014.48 1014.76 1014.71 1014.80 1014.78 1015.02 1015.27 1015.63 1016.01 1016.38 1016.50 1016.59 1016.65 1017.15 1017.57 1018.00 1018.30 1018.70 1018.92 1019.06 1019.39 1019.58 1019.95 1020.20 1020.36 1020.36 1020.50 1020.80 1021.01 1021.23 1021.63 1022.38 1022.41 1022.61 1022.60 1022.69
1011.95 1012.05 1012.20 1012.41 1012.52 1012.85 1013.35 1013.79 1014.21 1014.47 1014.44 1014.19 1014.73 1014.73 1014.97 1015.30 1015.80 1015.97 1016.01 1016.12 1016.48 1016.99 1017.56 1017.92 1018.34 1018.59 1018.82 1019.13 1019.39 1019.76 1020.07 1020.27 1020.45 1020.55 1020.70 1020.95 1021.22 1021.34 1021.62 1022.43 1022.62 1022.77 1022.90
1011.77 1011.74 1011.79 1011.95 1012.10 1012.24 1012.58 1013.36 1013.86 1014.23 1014.19 1013.77 1013.69 1013.93 1014.34 1014.55 1014.99 1015.42 1015.36 1015.70 1015.96 1016.40 1016.84 1017.33 1017.82 1018.43 1018.67 1018.90 1019.32 1019.62 1019.98 1020.16 1020.26 1020.35 1020.40 1020.81 1021.07 1021.35 1021.62 1021.93 1022.37 1022.64 1023.03
1011.79 1011.72 1011.69 1011.79 1011.93 1011.90 1011.96 1012.75 1013.24 1013.23 1013.33 1013.65 1013.36 1013.17 1013.60 1013.89 1014.26 1014.53 1014.59 1014.87 1015.24 1015.64 1016.13 1016.63 1017.15 1017.86 1018.47 1018.81 1019.33 1019.58 1019.88 1020.03 1020.11 1020.11 1020.22 1020.45 1020.79 1021.42 1021.48 1021.81 1022.01 1022.18 1022.76
1011.84 1011.64 1011.46 1011.44 1011.68 1011.71 1011.44 1011.47 1012.01 1012.32 1012.53 1012.66 1013.03 1013.14 1013.19 1013.24 1013.61 1013.84 1014.04 1014.00 1014.40 1014.91 1015.45 1016.01 1016.38 1017.08 1017.64 1018.34 1018.29 1018.53 1019.00 1019.57 1019.70 1019.67 1019.81 1019.95 1020.28 1020.70 1021.20 1021.53 1021.75 1022.08 1022.28
1011.92 1011.95 1011.82 1011.66 1011.57 1011.58 1011.42 1011.20 1011.20 1011.37 1011.57 1011.76 1012.15 1012.29 1012.43 1012.53 1012.55 1012.88 1013.06 1013.45 1013.71 1014.14 1014.36 1014.91 1015.70 1016.11 1016.62 1017.67 1017.60 1017.31 1017.91 1017.81 1018.29 1019.03 1019.52 1019.85 1019.89 1020.20 1020.71 1021.09 1021.45 1021.82 1022.18
1012.44 1012.24 1011.96 1011.68 1011.50 1011.43 1011.43 1011.20 1010.90 1010.66 1010.68 1010.84 1010.98 1011.19 1011.45 1011.83 1012.11 1012.15 1012.41 1012.77 1013.18 1013.49 1013.73 1013.92 1014.68 1015.15 1015.69 1016.34 1017.50 1017.35 1017.53 1017.53 1017.71 1018.93 1019.32 1019.52 1019.82 1019.82 1020.18 1020.62 1021.29 1021.84 1022.37
1012.58 1012.28 1011.91 1011.56 1011.30 1011.27 1011.19 1011.05 1010.78 1010.44 1010.21 1010.26 1010.33 1010.54 1010.73 1011.06 1011.42 1011.68 1011.80 1012.20 1012.42 1012.77 1012.90 1013.37 1013.84 1014.26 1014.35 1014.96 1015.67 1016.48 1017.24 1017.68 1017.93 1018.00 1018.44 1019.33 1019.97 1019.93 1020.10 1020.45 1020.89 1021.30 1021.85
1012.59 1012.34 1012.03 1011.61 1011.21 1011.14 1011.05 1010.93 1010.63 1010.16 1009.88 1009.75 1009.85 1009.98 1010.09 1010.39 1010.87 1011.17 1011.41 1011.54 1011.71 1011.93 1012.34 1012.61 1013.28 1013.78 1013.97 1014.35 1014.94 1015.33 1015.54 1016.16 1016.77 1017.51 1018.04 1018.75 1019.34 1019.65 1020.22 1020.49 1020.92 1021.24 1021.32
Thickness
5774 5773 5766 5765 5762 5759 5756 5754 5752 5750 5748 5746 5744 5742 5741 5739 5738 5736 5736 5735 5734 5734 5732 5732 5730 5728 5725 5723 5722 5720 5719 5719 5718 5717 5716 5716 5716 5714 5713 5712 5714 5715 5711
5775 5770 5762 5761 5758 5755 5753 5751 5749 5747 5745 5743 5740 5738 5736 5735 5734 5733 5733 5732 5731 5730 5728 5727 5725 5723 5721 5718 5717 5716 5714 5714 5713 5712 5712 5712 5711 5709 5708 5708 5709 5708 5706
5771 5768 5760 5758 5755 5752 5749 5747 5745 5742 5741 5740 5736 5733 5732 5730 5729 5729 5729 5728 5727 5726 5723 5721 5719 5717 5715 5713 5711 5710 5710 5709 5707 5706 5709 5711 5708 5705 5704 5704 5704 5703 5702
5767 5763 5759 5754 5752 5750 5747 5743 5741 5739 5737 5735 5732 5729 5727 5726 5725 5724 5724 5725 5723 5721 5718 5714 5712 5711 5710 5708 5707 5706 5706 5705 5704 5704 5707 5707 5706 5701 5701 5700 5699 5698 5697
5762 5759 5754 5748 5747 5745 5744 5740 5738 5735 5732 5730 5729 5725 5722 5721 5720 5719 5717 5717 5715 5713 5711 5709 5707 5705 5704 5702 5701 5701 5700 5699 5700 5702 5702 5700 5700 5698 5697 5697 5695 5694 5695
5757 5754 5745 5742 5740 5740 5739 5735 5732 5730 5728 5726 5723 5720 5717 5716 5715 5714 5711 5710 5708 5707 5705 5703 5701 5700 5698 5697 5696 5696 5695 5695 5695 5698 5697 5695 5695 5692 5692 5690 5690 5690 5690
5751 5749 5741 5737 5736 5736 5734 5731 5728 5725 5723 5722 5719 5715 5712 5710 5710 5709 5706 5705 5703 5700 5699 5698 5696 5695 5694 5692 5691 5691 5691 5691 5693 5692 5692 5692 5689 5687 5686 5684 5684 5684 5682
5745 5742 5739 5733 5731 5729 5728 5727 5724 5721 5718 5716 5713 5710 5708 5707 5705 5703 5701 5698 5697 5696 5694 5693 5692 5689 5688 5688 5686 5685 5686 5686 5688 5688 5686 5686 5682 5680 5679 5678 5677 5674 5674
5739 5736 5734 5729 5725 5723 5722 5721 5718 5716 5713 5710 5709 5706 5704 5702 5700 5698 5695 5693 5692 5690 5688 5687 5686 5683 5683 5682 5681 5681 5680 5680 5683 5682 5681 5681 5675 5675 5672 5671 5669 5666 5665
5732 5731 5730 5728 5725 5722 5719 5715 5712 5710 5708 5706 5704 5702 5699 5697 5695 5692 5690 5688 5686 5685 5683 5682 5680 5679 5678 5677 5676 5675 5675 5674 5676 5674 5675 5671 5668 5667 5666 5664 5661 5660 5658
5725 5726 5725 5724 5722 5720 5718 5713 5707 5705 5703 5701 5700 5698 5695 5694 5691 5687 5687 5685 5683 5681 5680 5677 5674 5674 5673 5672 5670 5671 5670 5672 5671 5670 5670 5663 5661 5660 5657 5655 5655 5652 5651
5716 5719 5722 5721 5719 5715 5712 5710 5707 5705 5701 5700 5699 5696 5696 5693 5689 5686 5681 5679 5678 5677 5675 5672 5670 5669 5670 5670 5667 5666 5667 5666 5665 5664 5663 5657 5656 5653 5651 5649 5647 5645 5644
5715 5714 5714 5717 5716 5713 5709 5707 5706 5704 5701 5700 5698 5695 5694 5690 5685 5680 5678 5675 5675 5672 5673 5668 5666 5667 5666 5665 5665 5665 5663 5662 5662 5659 5655 5651 5650 5646 5643 5643 5641 5638 5637
5711 5711 5710 5708 5711 5709 5707 5704 5704 5702 5697 5696 5694 5693 5690 5688 5684 5681 5679 5676 5673 5672 5672 5668 5667 5663 5661 5660 5660 5659 5657 5657 5656 5653 5650 5644 5643 5641 5637 5635 5633 5631 5630
5707 5708 5707 5705 5706 5705 5702 5703 5702 5699 5696 5693 5690 5689 5687 5686 5683 5681 5678 5675 5672 5671 5670 5666 5663 5660 5658 5656 5654 5653 5652 5651 5649 5648 5648 5640 5638 5634 5632 5629 5627 5625 5623
5710 5708 5706 5704 5702 5702 5695 5697 5699 5698 5696 5691 5688 5687 5684 5685 5683 5679 5676 5673 5670 5666 5665 5663 5661 5658 5655 5651 5648 5647 5647 5645 5642 5641 5639 5633 5631 5630 5628 5624 5621 5619 5617
5712 5712 5709 5702 5699 5699 5695 5692 5694 5693 5692 5692 5688 5685 5682 5680 5678 5677 5676 5673 5669 5664 5661 5658 5655 5654 5652 5647 5645 5642 5641 5640 5638 5636 5633 5631 5623 5621 5620 5618 5616 5614 5612
5702 5702 5703 5704 5701 5699 5695 5693 5691 5690 5688 5688 5686 5684 5682 5679 5676 5675 5673 5672 5666 5662 5657 5655 5651 5648 5648 5644 5642 5638 5635 5633 5633 5631 5629 5626 5624 5619 5613 5611 5608 5607 5605
5699 5700 5701 5702 5702 5700 5697 5692 5688 5686 5686 5688 5683 5683 5681 5678 5674 5672 5671 5670 5666 5661 5655 5651 5648 5645 5643 5641 5638 5634 5631 5628 5626 5625 5623 5621 5618 5616 5612 5606 5602 5600 5598
5698 5701 5701 5701 5700 5700 5697 5689 5685 5681 5682 5684 5684 5682 5677 5675 5671 5668 5668 5664 5662 5660 5655 5649 5644 5639 5638 5635 5631 5629 5625 5623 5622 5620 5619 5615 5612 5610 5606 5603 5598 5595 5591
5690 5692 5693 5693 5693 5693 5692 5684 5680 5680 5678 5674 5677 5678 5673 5671 5669 5667 5666 5663 5659 5656 5652 5648 5642 5637 5631 5629 5623 5621 5618 5618 5617 5616 5613 5611 5608 5601 5600 5596 5593 5590 5586
5680 5685 5687 5688 5686 5686 5689 5689 5684 5679 5678 5676 5671 5670 5669 5668 5665 5662 5661 5661 5658 5652 5648 5643 5641 5634 5630 5624 5623 5622 5617 5614 5612 5611 5610 5608 5604 5600 5594 5590 5587 5583 5581
5670 5671 5673 5676 5678 5677 5679 5681 5681 5679 5677 5674 5670 5668 5665 5662 5660 5658 5658 5654 5653 5650 5647 5643 5636 5633 5627 5620 5622 5623 5616 5619 5616 5608 5602 5600 5599 5595 5589 5585 5581 5577 5573
5657 5661 5664 5667 5668 5669 5668 5669 5670 5672 5669 5671 5667 5665 5661 5656 5653 5652 5652 5649 5646 5645 5643 5643 5635 5631 5626 5621 5611 5615 5613 5614 5612 5598 5595 5593 5590 5589 5585 5580 5574 5568 5563
5649 5652 5655 5657 5659 5659 5659 5660 5660 5662 5665 5664 5662 5658 5655 5652 5647 5644 5643 5640 5640 5638 5638 5634 5631 5627 5627 5622 5616 5610 5603 5601 5599 5600 5599 5585 5579 5579 5576 5571 5567 5562 5556
5640 5641 5644 5646 5649 5649 5649 5649 5650 5652 5654 5653 5651 5649 5647 5645 5640 5637 5634 5632 5631 5632 5629 5628 5624 5620 5620 5617 5612 5610 5610 5605 5600 5594 5592 5584 5578 5573 5566 5561 5556 5551 5549